When you browse on this site, cookies collect data to enhance your experience and personalize the content and advertising you see.
Visit our Privacy Policy to learn more. By continuing to use the site, you agree to this use of cookies and data.
  • In Österreich
  • Länderverzeichnis
  • Für 7 Tage
  • Wassertemperatur
  • Wetterkarte
  • News
  • Widgets
  • user-avatar
    Anmelden

    Stündliche Wetter Newcastle

    Heute, 28 Januar, Dienstag

    Zeit Temperatur Niederschläge Wind Luftdruck Luftfeuchtigkeit
    00:00 -8°C° 0.1 mm 3 m/S 744 mmHg 92%
    01:00 -8°C° 0.1 mm 3 m/S 744 mmHg 92%
    02:00 -8°C° 0 mm 3 m/S 744 mmHg 94%
    03:00 -9°C° 0.1 mm 3 m/S 745 mmHg 93%
    04:00 -9°C° 0.1 mm 3 m/S 745 mmHg 93%
    05:00 -10°C° 0.1 mm 3 m/S 745 mmHg 92%
    06:00 -12°C° 0 mm 3 m/S 746 mmHg 90%
    07:00 -13°C° 0 mm 3 m/S 746 mmHg 88%
    08:00 -14°C° 0 mm 3 m/S 746 mmHg 86%
    09:00 -14°C° 0 mm 4 m/S 747 mmHg 85%
    10:00 -11°C° 0 mm 4 m/S 747 mmHg 84%
    11:00 -10°C° 0 mm 4 m/S 747 mmHg 83%
    12:00 -10°C° 0 mm 4 m/S 747 mmHg 85%
    13:00 -9°C° 0 mm 4 m/S 747 mmHg 86%
    14:00 -9°C° 0 mm 4 m/S 747 mmHg 88%
    15:00 -8°C° 0 mm 3 m/S 747 mmHg 89%
    16:00 -8°C° 0 mm 3 m/S 748 mmHg 89%
    17:00 -8°C° 0 mm 2 m/S 748 mmHg 90%
    18:00 -9°C° 0 mm 2 m/S 749 mmHg 91%
    19:00 -10°C° 0 mm 2 m/S 749 mmHg 91%
    20:00 -12°C° 0 mm 2 m/S 749 mmHg 92%
    21:00 -13°C° 0 mm 2 m/S 749 mmHg 92%
    22:00 -12°C° 0 mm 1 m/S 750 mmHg 92%
    23:00 -13°C° 0 mm 1 m/S 750 mmHg 92%

    Morgen, 29 Januar, Mittwoch

    Zeit Temperatur Niederschläge Wind Luftdruck Luftfeuchtigkeit
    00:00 -13°C° 0 mm 1 m/S 750 mmHg 91%
    01:00 -14°C° 0 mm 1 m/S 750 mmHg 90%
    02:00 -14°C° 0 mm 1 m/S 750 mmHg 90%
    03:00 -15°C° 0 mm 1 m/S 750 mmHg 90%
    04:00 -15°C° 0 mm 1 m/S 750 mmHg 89%
    05:00 -15°C° 0 mm 1 m/S 750 mmHg 89%
    06:00 -15°C° 0 mm 1 m/S 750 mmHg 88%
    07:00 -16°C° 0 mm 1 m/S 750 mmHg 88%
    08:00 -16°C° 0 mm 1 m/S 751 mmHg 87%
    09:00 -16°C° 0 mm 2 m/S 751 mmHg 85%
    10:00 -15°C° 0 mm 3 m/S 751 mmHg 82%
    11:00 -14°C° 0 mm 4 m/S 752 mmHg 80%
    12:00 -14°C° 0 mm 4 m/S 752 mmHg 80%
    13:00 -12°C° 0 mm 4 m/S 752 mmHg 79%
    14:00 -12°C° 0 mm 4 m/S 752 mmHg 79%
    15:00 -14°C° 0 mm 4 m/S 753 mmHg 80%
    16:00 -14°C° 0 mm 3 m/S 753 mmHg 81%
    17:00 -15°C° 0 mm 3 m/S 754 mmHg 82%
    18:00 -16°C° 0 mm 3 m/S 754 mmHg 81%
    19:00 -18°C° 0 mm 4 m/S 755 mmHg 81%
    20:00 -20°C° 0 mm 4 m/S 756 mmHg 80%
    21:00 -20°C° 0 mm 4 m/S 756 mmHg 82%
    22:00 -19°C° 0 mm 3 m/S 756 mmHg 83%
    23:00 -21°C° 0 mm 3 m/S 756 mmHg 85%

    übermorgen, 30 Januar, Donnerstag

    Zeit Temperatur Niederschläge Wind Luftdruck Luftfeuchtigkeit
    00:00 -21°C° 0 mm 3 m/S 756 mmHg 85%
    01:00 -21°C° 0 mm 3 m/S 757 mmHg 84%
    02:00 -21°C° 0 mm 3 m/S 757 mmHg 84%
    03:00 -21°C° 0 mm 3 m/S 758 mmHg 85%
    04:00 -20°C° 0 mm 2 m/S 758 mmHg 85%
    05:00 -20°C° 0 mm 2 m/S 759 mmHg 85%
    06:00 -20°C° 0 mm 2 m/S 759 mmHg 85%
    07:00 -20°C° 0 mm 2 m/S 759 mmHg 85%
    08:00 -20°C° 0 mm 2 m/S 760 mmHg 85%
    09:00 -17°C° 0 mm 2 m/S 760 mmHg 81%
    10:00 -14°C° 0 mm 2 m/S 760 mmHg 78%
    11:00 -12°C° 0 mm 2 m/S 760 mmHg 75%
    12:00 -9°C° 0 mm 2 m/S 760 mmHg 73%
    13:00 -8°C° 0 mm 2 m/S 760 mmHg 71%
    14:00 -6°C° 0 mm 2 m/S 760 mmHg 69%
    15:00 -7°C° 0 mm 2 m/S 760 mmHg 73%
    16:00 -8°C° 0 mm 2 m/S 760 mmHg 77%
    17:00 -8°C° 0 mm 1 m/S 760 mmHg 82%
    18:00 -10°C° 0 mm 2 m/S 760 mmHg 83%
    19:00 -12°C° 0 mm 2 m/S 760 mmHg 84%
    20:00 -13°C° 0 mm 2 m/S 760 mmHg 85%
    21:00 -14°C° 0 mm 2 m/S 760 mmHg 84%
    22:00 -14°C° 0 mm 2 m/S 760 mmHg 83%
    23:00 -14°C° 0 mm 2 m/S 760 mmHg 82%

    31 Januar, Freitag

    Zeit Temperatur Niederschläge Wind Luftdruck Luftfeuchtigkeit
    00:00 -14°C° 0 mm 2 m/S 759 mmHg 81%
    01:00 -14°C° 0 mm 2 m/S 759 mmHg 80%
    02:00 -14°C° 0 mm 2 m/S 759 mmHg 79%
    03:00 -15°C° 0 mm 2 m/S 759 mmHg 78%
    04:00 -15°C° 0 mm 2 m/S 759 mmHg 77%
    05:00 -15°C° 0 mm 2 m/S 759 mmHg 77%
    06:00 -15°C° 0 mm 2 m/S 759 mmHg 78%
    07:00 -15°C° 0 mm 2 m/S 759 mmHg 78%
    08:00 -15°C° 0 mm 2 m/S 760 mmHg 79%
    09:00 -13°C° 0 mm 3 m/S 760 mmHg 78%
    10:00 -10°C° 0 mm 3 m/S 760 mmHg 77%
    11:00 -8°C° 0 mm 3 m/S 760 mmHg 75%
    12:00 -6°C° 0 mm 3 m/S 760 mmHg 76%
    13:00 -5°C° 0 mm 3 m/S 760 mmHg 76%
    14:00 -4°C° 0 mm 3 m/S 760 mmHg 76%
    15:00 -5°C° 0 mm 3 m/S 760 mmHg 80%
    16:00 -5°C° 0 mm 2 m/S 760 mmHg 83%
    17:00 -6°C° 0 mm 2 m/S 760 mmHg 86%
    18:00 -7°C° 0 mm 2 m/S 760 mmHg 87%
    19:00 -8°C° 0 mm 1 m/S 761 mmHg 88%
    20:00 -9°C° 0 mm 1 m/S 761 mmHg 90%
    21:00 -10°C° 0 mm 1 m/S 761 mmHg 90%
    22:00 -11°C° 0 mm 1 m/S 761 mmHg 89%
    23:00 -12°C° 0 mm 1 m/S 761 mmHg 89%

    1 Februar, Samstag

    Zeit Temperatur Niederschläge Wind Luftdruck Luftfeuchtigkeit
    00:00 -12°C° 0 mm 1 m/S 761 mmHg 89%
    01:00 -13°C° 0 mm 1 m/S 761 mmHg 90%
    02:00 -13°C° 0 mm 1 m/S 761 mmHg 90%
    03:00 -13°C° 0 mm 0 m/S 760 mmHg 90%
    04:00 -14°C° 0 mm 0 m/S 760 mmHg 90%
    05:00 -14°C° 0 mm 0 m/S 759 mmHg 91%
    06:00 -13°C° 0 mm 1 m/S 759 mmHg 91%
    07:00 -12°C° 0 mm 1 m/S 759 mmHg 91%
    08:00 -12°C° 0 mm 1 m/S 759 mmHg 91%
    09:00 -10°C° 0 mm 1 m/S 759 mmHg 89%
    10:00 -8°C° 0 mm 1 m/S 758 mmHg 87%
    11:00 -7°C° 0 mm 1 m/S 758 mmHg 85%
    12:00 -6°C° 0 mm 1 m/S 757 mmHg 85%
    13:00 -4°C° 0 mm 1 m/S 756 mmHg 85%
    14:00 -3°C° 0 mm 1 m/S 755 mmHg 85%
    15:00 -3°C° 0 mm 1 m/S 754 mmHg 87%
    16:00 -3°C° 0 mm 1 m/S 753 mmHg 90%
    17:00 -3°C° 0 mm 1 m/S 752 mmHg 92%
    18:00 -4°C° 0 mm 1 m/S 752 mmHg 93%
    19:00 -4°C° 0 mm 1 m/S 751 mmHg 94%
    20:00 -6°C° 0 mm 1 m/S 750 mmHg 95%
    21:00 -6°C° 0 mm 1 m/S 749 mmHg 95%
    22:00 -6°C° 0 mm 1 m/S 749 mmHg 96%
    23:00 -6°C° 0 mm 1 m/S 748 mmHg 97%

    2 Februar, Sonntag

    Zeit Temperatur Niederschläge Wind Luftdruck Luftfeuchtigkeit
    00:00 -7°C° 0.4 mm 2 m/S 746 mmHg 96%
    01:00 -8°C° 0.4 mm 3 m/S 745 mmHg 96%
    02:00 -7°C° 0.4 mm 3 m/S 744 mmHg 95%
    03:00 -8°C° 0.6 mm 4 m/S 743 mmHg 95%
    04:00 -8°C° 0.6 mm 4 m/S 742 mmHg 95%
    05:00 -8°C° 0.6 mm 5 m/S 741 mmHg 94%
    06:00 -8°C° 0.9 mm 5 m/S 740 mmHg 94%
    07:00 -8°C° 0.9 mm 5 m/S 739 mmHg 94%
    08:00 -9°C° 0.9 mm 6 m/S 739 mmHg 94%
    09:00 -9°C° 0.8 mm 6 m/S 738 mmHg 94%
    10:00 -9°C° 0.8 mm 6 m/S 737 mmHg 94%
    11:00 -8°C° 0.8 mm 6 m/S 737 mmHg 93%
    12:00 -8°C° 0.7 mm 7 m/S 736 mmHg 93%
    13:00 -8°C° 0.7 mm 7 m/S 735 mmHg 93%
    14:00 -8°C° 0.7 mm 7 m/S 734 mmHg 92%
    15:00 -8°C° 0.4 mm 7 m/S 734 mmHg 92%
    16:00 -8°C° 0.4 mm 6 m/S 734 mmHg 92%
    17:00 -8°C° 0.4 mm 6 m/S 734 mmHg 92%
    18:00 -8°C° 0.1 mm 6 m/S 734 mmHg 90%
    19:00 -7°C° 0.1 mm 5 m/S 734 mmHg 89%
    20:00 -8°C° 0.1 mm 5 m/S 734 mmHg 87%
    21:00 -8°C° 0 mm 5 m/S 734 mmHg 87%
    22:00 -8°C° 0 mm 5 m/S 734 mmHg 87%
    23:00 -8°C° 0 mm 5 m/S 734 mmHg 87%
    Mehr zeigen